Wind_Speed
2 4 6 9 6 3 5 4 4 2 1 3 5 6 12 10 7 10 10 10 10 11 19 23 26 27 34 37 38 41 41 43 43 40 38 36 38 38 37 35 35 35 39 40
5 4 7 5 5 3 3 3 2 2 1 3 3 9 10 9 10 8 10 11 10 8 10 13 17 20 24 33 38 40 42 44 45 39 41 34 34 36 41 40 36 36 35 39
6 2 9 6 5 6 3 4 3 5 1 3 4 8 7 5 5 7 7 6 7 10 11 9 9 10 16 24 30 37 43 45 45 44 34 30 28 28 31 37 34 38 38 38
4 3 6 4 5 6 5 7 5 4 3 3 2 5 6 5 11 6 9 6 8 7 4 5 8 11 9 11 16 25 32 39 42 41 36 38 34 30 35 33 41 39 37 38
7 8 6 4 6 6 6 4 4 3 4 3 3 1 7 3 6 6 8 7 7 8 7 9 10 13 14 14 9 9 16 27 34 36 37 39 32 30 29 32 32 36 39 39
4 1 4 7 3 3 9 6 7 4 3 2 5 5 5 3 3 3 4 7 8 9 9 9 15 15 17 16 16 12 6 11 21 28 34 38 35 31 29 31 31 33 34 36
1 1 0 3 6 4 4 6 2 3 2 5 1 3 8 5 1 2 4 6 7 8 9 9 10 22 24 21 18 16 11 4 9 19 26 32 36 36 37 36 34 34 33 33
7 4 7 5 7 8 7 7 6 7 4 3 3 5 5 2 3 4 4 4 7 9 7 8 11 17 20 20 19 17 14 11 7 9 17 23 28 31 34 35 35 35 36 36
6 5 1 2 4 8 6 4 5 7 3 3 3 5 6 3 6 5 7 9 9 8 8 9 12 13 16 18 19 19 16 12 9 7 11 15 19 24 28 30 32 34 35 34
8 3 1 2 3 3 4 8 3 2 2 3 3 3 5 6 7 5 9 8 7 7 9 9 12 16 18 20 19 19 17 15 12 10 11 13 14 18 22 26 29 31 33 32
5 4 0 4 6 9 3 3 3 5 5 5 1 5 6 7 8 8 8 6 7 8 7 7 12 14 17 19 20 21 20 20 19 16 14 15 13 15 18 22 25 27 29 31
6 5 4 6 2 3 3 7 6 5 5 2 3 5 2 9 8 8 5 3 3 5 7 7 12 16 20 21 23 23 22 20 19 19 19 19 19 20 21 22 24 24 27 29
7 3 3 2 2 2 4 3 4 5 3 7 6 5 2 5 6 4 3 4 5 6 8 8 14 14 17 20 22 23 23 24 24 23 22 22 23 26 27 27 27 27 27 28
5 3 5 10 2 4 5 3 2 4 4 4 7 5 7 6 6 4 5 5 6 5 5 5 7 12 18 21 23 25 26 26 26 26 26 25 25 26 27 29 29 29 28 29
3 4 4 5 4 3 3 5 7 6 5 8 2 5 4 7 7 2 3 5 6 7 8 8 8 12 22 27 31 32 31 31 31 31 31 30 28 27 27 29 29 29 29 29
4 4 3 1 3 2 3 6 7 5 4 5 4 15 9 2 6 4 5 6 5 6 7 7 7 12 17 21 25 28 29 31 31 29 27 27 28 28 27 27 28 28 28 28
5 6 3 4 1 4 7 7 9 5 5 6 9 8 5 3 5 5 5 3 1 3 5 6 7 12 18 21 23 26 29 30 30 30 28 26 27 29 29 28 27 28 28 27
6 5 3 3 1 4 2 2 2 8 9 8 9 3 5 5 4 5 4 4 5 5 4 5 9 14 16 20 22 25 27 29 30 30 29 30 30 29 30 29 26 27 27 25
2 5 2 4 3 6 5 6 7 8 7 10 8 3 4 4 3 4 7 5 1 0 4 6 7 11 15 17 19 21 25 25 26 27 30 31 30 31 28 27 27 24 25 24
3 5 3 2 5 9 4 3 4 5 5 6 8 7 5 4 0 3 6 1 2 5 5 8 9 11 14 16 17 19 22 23 24 27 29 28 28 28 27 27 24 20 18 23
4 2 6 4 3 8 7 6 1 6 7 2 6 6 4 2 4 4 1 4 6 5 5 6 9 12 13 15 16 18 20 21 22 25 27 28 26 26 25 26 21 20 18 19
8 7 4 3 2 9 7 6 6 4 2 5 4 3 2 5 7 6 3 6 6 5 6 8 11 14 13 13 15 18 21 21 23 25 26 27 26 25 24 23 21 19 17 17
2 6 6 8 6 0 6 0 2 3 5 3 4 2 0 5 6 8 6 5 9 8 8 11 13 17 17 13 14 18 21 23 25 27 29 28 28 23 20 21 20 18 16 18
4 3 3 4 5 5 5 3 3 3 6 4 2 1 2 5 8 8 8 6 3 7 9 10 11 16 23 20 19 19 21 22 23 25 24 26 21 20 20 18 16 15 14 13
5 9 6 3 2 3 2 4 5 2 4 4 3 3 7 7 11 7 6 6 13 11 9 10 13 17 24 24 23 21 22 22 23 24 23 22 19 22 21 17 16 11 9 9
6 6 6 5 5 4 4 7 5 5 4 6 5 5 5 7 8 6 6 11 13 15 12 13 19 23 27 25 25 22 21 21 21 24 22 21 21 21 18 15 12 4 6 7
Wind_Direction
19 110 191 198 171 138 148 156 173 234 165 148 237 267 278 290 295 276 268 261 258 255 263 265 255 247 242 238 235 232 228 228 224 220 220 221 223 225 227 231 235 234 234 230
48 207 212 121 151 136 135 122 249 309 8 156 348 277 261 268 262 240 258 267 264 277 286 273 266 255 242 240 236 234 232 231 229 220 223 219 223 226 230 232 230 230 229 234
152 229 142 147 143 147 200 171 191 210 37 32 359 305 319 292 263 267 257 267 275 265 285 301 301 274 249 240 239 236 235 233 232 228 219 219 221 226 230 232 229 231 236 233
215 176 137 158 174 137 173 201 154 162 97 226 360 278 303 299 295 312 316 313 326 329 334 329 340 355 344 292 263 248 243 237 234 228 215 215 217 218 225 226 231 234 234 238
233 171 143 152 193 162 198 115 130 94 98 84 316 54 272 341 315 332 12 41 9 14 17 13 10 10 13 17 359 290 254 245 239 229 220 221 218 225 229 232 233 238 240 241
180 44 154 180 91 146 143 84 54 56 89 307 225 156 285 223 188 1 354 3 6 12 11 11 15 13 14 17 19 10 326 253 240 235 229 229 226 225 228 231 232 236 240 242
70 197 314 135 84 45 91 87 359 347 2 223 94 104 243 262 298 293 333 25 19 13 17 15 8 8 11 13 17 21 10 328 246 235 234 236 239 240 242 243 240 240 237 237
154 229 165 181 171 168 186 158 160 196 198 250 111 227 243 121 90 58 66 55 46 30 15 21 24 21 15 15 13 13 7 354 322 261 247 244 246 249 252 257 257 255 253 253
151 243 56 106 146 148 190 187 157 106 29 62 222 286 326 91 80 55 78 58 40 24 7 357 3 26 16 13 12 6 358 349 332 300 266 258 257 257 260 263 264 264 265 263
197 132 52 139 106 36 158 156 86 8 146 252 272 253 227 149 136 119 63 54 15 1 5 0 360 3 5 8 3 357 356 348 344 319 296 280 272 271 270 270 269 270 271 269
143 112 143 122 210 160 136 171 61 122 153 173 186 252 228 134 147 114 93 42 15 359 357 352 352 3 3 359 356 350 345 338 337 332 315 298 296 292 285 279 277 275 275 272
186 129 160 198 246 217 181 185 154 148 220 232 153 256 59 133 138 114 127 92 349 341 340 360 4 8 12 11 11 10 6 355 347 332 318 313 309 303 298 295 292 289 282 279
179 189 88 54 6 342 193 166 149 114 85 197 147 248 188 124 140 154 154 330 342 13 16 5 9 9 14 14 13 11 10 7 3 356 343 327 318 314 309 305 303 299 293 287
84 107 181 208 154 131 169 152 116 148 172 182 220 139 237 282 340 54 60 50 56 43 18 357 4 4 4 2 2 3 5 2 355 349 344 341 334 327 319 313 307 302 298 291
94 87 41 21 96 90 161 166 170 183 196 187 168 200 246 303 318 49 92 77 57 31 16 9 359 355 358 356 354 354 353 354 352 350 346 342 335 326 318 314 312 307 300 295
18 126 114 97 335 4 270 238 217 198 202 257 271 271 207 153 102 41 48 58 44 7 351 349 347 350 350 349 344 342 343 344 345 344 344 341 339 335 333 327 320 313 306 296
140 139 127 165 267 75 298 220 209 193 191 172 217 254 142 149 141 150 148 126 11 350 337 335 329 331 338 341 340 337 336 337 338 339 341 341 340 336 335 333 328 324 318 309
137 108 69 156 55 199 196 13 57 230 247 227 257 140 132 150 174 227 173 190 216 221 271 288 311 324 333 334 335 334 337 338 337 336 338 341 340 338 337 335 334 330 322 315
352 124 92 150 191 310 264 215 177 173 255 213 224 203 144 121 106 272 196 201 207 254 290 292 304 313 324 331 332 330 331 332 334 335 335 336 337 334 334 333 333 333 328 323
105 83 109 95 157 206 250 303 162 116 282 197 171 168 163 137 28 244 212 174 248 299 296 306 318 321 327 333 331 328 328 329 331 332 331 332 331 329 328 328 328 328 329 316
141 100 173 175 198 286 231 219 345 104 240 185 135 153 145 168 198 175 99 263 238 258 297 304 313 318 322 324 321 320 320 323 323 324 325 327 327 325 325 322 324 322 327 314
169 163 180 135 111 268 177 65 178 203 58 127 124 125 225 264 291 287 230 235 231 281 307 314 312 310 312 312 310 310 311 321 320 320 322 322 322 324 323 321 322 323 319 312
209 186 176 179 205 145 196 202 208 145 136 117 107 83 263 292 285 293 283 196 213 251 285 300 299 302 307 311 311 308 316 319 319 318 320 322 320 323 324 325 320 316 316 314
249 156 150 94 236 184 167 139 109 118 113 133 208 259 292 268 270 268 280 286 238 258 278 290 292 297 304 317 316 315 316 315 312 312 313 318 314 318 323 324 321 314 313 311
184 148 166 253 258 77 143 152 123 82 4 336 296 254 258 274 279 265 277 286 291 292 295 296 303 305 303 313 312 316 317 315 312 310 307 306 301 308 311 314 316 320 321 307
176 164 184 212 184 150 171 177 169 181 211 240 258 292 281 245 262 294 283 297 301 304 304 302 303 300 301 304 304 311 315 313 310 305 302 299 296 299 301 302 314 349 341 334
Height
803 812 821 816 816 816 828 825 824 819 818 820 826 828 822 811 811 809 806 802 800 795 786 787 790 791 793 796 800 802 806 809 815 819 823 825 826 829 832 834 837 840 841 843
812 815 808 811 815 813 820 822 824 822 821 822 824 825 819 813 805 801 799 796 795 792 785 783 784 786 787 788 791 796 799 802 805 811 813 818 821 823 826 828 831 834 836 837
810 801 806 810 816 821 823 828 825 827 826 827 830 830 824 806 804 795 793 794 791 789 786 781 781 781 782 783 784 786 789 793 797 802 809 813 818 819 822 823 825 827 830 832
805 799 806 810 814 817 826 819 819 825 832 844 836 850 829 812 809 798 795 794 792 788 784 783 781 780 781 780 782 783 785 788 791 796 800 803 806 810 810 813 816 819 824 826
804 805 805 810 809 810 817 815 819 826 841 839 843 850 830 817 809 798 799 796 794 791 789 786 785 784 782 780 779 780 781 784 788 792 795 798 801 803 806 809 811 814 818 820
800 799 800 802 808 805 816 823 835 846 849 855 844 843 837 817 803 798 799 800 798 794 791 787 786 785 783 782 780 780 780 782 785 788 791 793 796 799 801 803 805 807 810 813
802 801 801 801 811 810 814 827 851 855 867 856 845 849 831 807 803 801 802 803 802 799 795 793 791 788 786 784 783 781 782 782 783 786 789 791 793 795 796 797 799 802 804 805
811 816 804 799 802 814 820 819 846 862 866 849 846 841 817 802 803 806 806 805 804 803 801 799 795 793 791 789 787 784 783 784 784 785 787 789 791 792 793 794 796 796 797 799
807 803 797 797 798 800 817 824 823 851 914 872 840 826 804 804 807 808 810 807 808 804 801 799 797 796 796 793 789 788 787 786 785 785 786 786 788 789 789 790 791 791 792 793
788 799 802 799 797 802 804 812 831 849 859 866 840 831 820 811 812 810 812 811 809 804 801 800 798 796 795 794 793 791 789 787 787 787 786 786 784 785 786 786 786 786 787 788
784 788 808 803 804 807 811 813 821 822 837 851 866 830 808 807 809 813 811 811 809 806 804 802 801 799 799 797 795 793 791 789 788 788 788 787 785 784 783 782 782 782 783 782
779 790 814 803 798 797 795 803 806 823 834 848 839 825 801 806 806 806 808 804 806 808 806 805 804 802 800 799 797 794 791 790 789 789 788 785 783 782 781 780 780 779 777 776
775 790 822 801 801 798 798 800 801 809 825 839 835 817 805 809 810 807 806 808 810 809 808 807 805 805 803 801 799 797 795 792 790 788 785 783 782 781 780 778 777 775 773 771
771 787 786 785 789 794 804 804 803 801 819 812 813 806 807 805 804 807 810 812 811 812 811 808 805 802 800 799 798 795 792 790 789 787 785 781 780 778 776 774 772 770 769 767
774 793 796 796 794 794 801 803 805 803 802 805 801 809 801 803 802 804 810 808 806 807 807 807 808 805 802 798 796 793 791 788 785 782 780 779 777 774 772 769 767 765 762 761
785 798 801 808 810 804 803 803 804 806 806 807 806 800 796 800 807 809 810 810 811 811 810 810 809 808 806 803 800 796 793 790 788 784 781 778 775 771 767 763 761 758 756 754
794 805 813 808 822 814 814 802 802 803 803 799 803 788 799 809 807 809 812 809 809 811 812 812 811 809 806 803 801 798 794 791 787 784 781 776 772 768 765 761 757 754 751 749
798 803 816 830 842 817 793 800 798 798 790 790 790 793 800 802 806 806 807 806 809 811 812 811 809 807 805 802 799 795 792 789 786 783 778 775 770 765 762 759 754 751 748 745
789 799 837 828 879 818 787 796 799 799 791 790 793 794 799 801 807 805 805 806 807 808 808 808 808 807 804 802 799 796 793 791 786 781 776 773 768 763 758 754 751 747 745 744
795 793 806 879 850 840 800 788 788 788 810 788 789 796 797 801 806 812 801 803 805 805 806 805 804 803 801 799 797 794 791 787 784 779 775 772 768 763 757 752 747 744 740 741
794 803 805 841 853 830 802 792 788 815 798 799 792 794 795 800 802 801 802 803 802 802 802 802 801 799 797 795 792 790 787 783 780 775 771 767 764 760 756 751 746 742 736 737
783 792 800 819 817 814 790 795 795 790 791 790 792 793 796 799 798 797 800 800 799 799 798 797 795 794 792 791 789 786 783 780 775 771 767 763 760 756 753 748 744 741 737 735
790 784 796 793 787 779 785 781 784 785 788 791 792 795 797 799 798 796 794 797 797 795 794 793 791 789 787 787 785 782 779 776 772 768 764 760 755 753 750 745 742 738 736 734
784 783 790 790 777 781 782 782 783 785 789 790 793 794 795 797 795 793 791 788 791 790 789 789 788 786 783 783 781 779 776 773 770 766 762 758 754 751 748 745 741 738 735 732
775 778 788 791 779 780 781 782 783 784 786 789 790 792 793 793 790 789 788 787 786 786 786 786 785 783 780 779 776 775 773 769 766 763 760 757 753 750 746 743 740 736 734 731
768 770 770 780 772 773 778 782 783 786 787 788 790 790 789 790 790 788 786 786 785 784 784 784 783 781 777 775 773 771 769 766 763 759 756 753 750 746 744 742 739 736 733 730